contact:dominique.lefevre@mio.osupytheas.fr, maurice.libes@osupytheas.fr, didier.mallarino@osupytheas.fr
Project:EMSO http://www.emso-fr.org/EMSO-France
Depth: 2436.0 m
Title:EMSO Ligure Ouest : Data MII capteur MICROCAT
DateTime_Computer,Latitude,Longitude,Temperature,Conductivity,Pressure,DateTime_Instrument
DateTime_Computer,Latitude,Longitude,degC,S m-1,dbar,DateTime_Instrument
2020-08-29T00:00:58Z,42.805,6.029,13.2996,4.60024,2470.077,2020-8-29T02:01:48Z
2020-08-29T00:04:01Z,42.805,6.029,13.2986,4.60019,2470.04,2020-8-29T02:04:52Z
2020-08-29T00:07:04Z,42.805,6.029,13.2979,4.60021,2470.03,2020-8-29T02:07:55Z
2020-08-29T00:10:08Z,42.805,6.029,13.2991,4.60020,2470.007,2020-8-29T02:10:58Z
2020-08-29T00:13:11Z,42.805,6.029,13.2986,4.60006,2470.04,2020-8-29T02:14:01Z
2020-08-29T00:16:14Z,42.805,6.029,13.2978,4.59996,2470.04,2020-8-29T02:17:05Z
2020-08-29T00:19:18Z,42.805,6.029,13.2982,4.60014,2470.063,2020-8-29T02:20:08Z
2020-08-29T00:22:21Z,42.805,6.029,13.2994,4.60034,2470.053,2020-8-29T02:23:11Z
2020-08-29T00:25:24Z,42.805,6.029,13.2985,4.60025,2470.04,2020-8-29T02:26:15Z
2020-08-29T00:28:28Z,42.805,6.029,13.2986,4.60024,2470.063,2020-8-29T02:29:18Z
2020-08-29T00:31:31Z,42.805,6.029,13.2987,4.60036,2470.017,2020-8-29T02:32:21Z
2020-08-29T00:34:34Z,42.805,6.029,13.2990,4.60037,2470.03,2020-8-29T02:35:24Z
2020-08-29T00:37:37Z,42.805,6.029,13.2983,4.60017,2470.03,2020-8-29T02:38:28Z
2020-08-29T00:40:41Z,42.805,6.029,13.2983,4.60016,2470.077,2020-8-29T02:41:31Z
2020-08-29T00:43:44Z,42.805,6.029,13.2987,4.60020,2470.063,2020-8-29T02:44:34Z
2020-08-29T00:46:47Z,42.805,6.029,13.2976,4.60016,2470.087,2020-8-29T02:47:37Z
2020-08-29T00:49:51Z,42.805,6.029,13.2979,4.60022,2470.077,2020-8-29T02:50:41Z
2020-08-29T00:52:54Z,42.805,6.029,13.2981,4.60027,2470.067,2020-8-29T02:53:44Z
2020-08-29T00:55:57Z,42.805,6.029,13.2979,4.60002,2470.04,2020-8-29T02:56:47Z
2020-08-29T00:59:00Z,42.805,6.029,13.2982,4.60048,2470.1,2020-8-29T02:59:51Z
2020-08-29T01:02:04Z,42.805,6.029,13.2983,4.60033,2470.1,2020-8-29T03:02:54Z
2020-08-29T01:05:07Z,42.805,6.029,13.2990,4.60037,2470.03,2020-8-29T03:05:57Z
2020-08-29T01:08:10Z,42.805,6.029,13.2991,4.60027,2470.04,2020-8-29T03:09:00Z
2020-08-29T01:11:13Z,42.805,6.029,13.2986,4.60014,2470.077,2020-8-29T03:12:04Z
2020-08-29T01:14:16Z,42.805,6.029,13.2982,4.60016,2470.04,2020-8-29T03:15:07Z
2020-08-29T01:17:20Z,42.805,6.029,13.2998,4.60028,2470.087,2020-8-29T03:18:10Z
2020-08-29T01:20:23Z,42.805,6.029,13.2983,4.60022,2470.11,2020-8-29T03:21:13Z
2020-08-29T01:23:26Z,42.805,6.029,13.2987,4.60024,2470.063,2020-8-29T03:24:17Z
2020-08-29T01:26:30Z,42.805,6.029,13.2981,4.60024,2470.087,2020-8-29T03:27:20Z
2020-08-29T01:29:33Z,42.805,6.029,13.2987,4.60003,2470.124,2020-8-29T03:30:23Z
2020-08-29T01:32:36Z,42.805,6.029,13.2986,4.60014,2470.1,2020-8-29T03:33:26Z
2020-08-29T01:35:39Z,42.805,6.029,13.2983,4.60034,2470.063,2020-8-29T03:36:30Z
2020-08-29T01:38:43Z,42.805,6.029,13.2979,4.60016,2470.063,2020-8-29T03:39:33Z
2020-08-29T01:41:46Z,42.805,6.029,13.2981,4.60019,2470.11,2020-8-29T03:42:36Z
2020-08-29T01:44:49Z,42.805,6.029,13.2989,4.60024,2470.063,2020-8-29T03:45:40Z
2020-08-29T01:47:53Z,42.805,6.029,13.2984,4.60024,2470.087,2020-8-29T03:48:43Z
2020-08-29T01:50:56Z,42.805,6.029,13.2983,4.60009,2470.124,2020-8-29T03:51:46Z
2020-08-29T01:53:59Z,42.805,6.029,13.2982,4.60014,2470.1,2020-8-29T03:54:49Z
2020-08-29T01:57:02Z,42.805,6.029,13.2982,4.60015,2470.087,2020-8-29T03:57:53Z
2020-08-29T02:00:06Z,42.805,6.029,13.2983,4.60025,2470.087,2020-8-29T04:00:56Z
2020-08-29T02:03:09Z,42.805,6.029,13.2982,4.60020,2470.119,2020-8-29T04:03:59Z
2020-08-29T02:06:12Z,42.805,6.029,13.2990,4.60000,2470.1,2020-8-29T04:07:03Z
2020-08-29T02:09:16Z,42.805,6.029,13.2990,4.60027,2470.087,2020-8-29T04:10:06Z
2020-08-29T02:12:19Z,42.805,6.029,13.2995,4.60026,2470.087,2020-8-29T04:13:09Z
2020-08-29T02:15:22Z,42.805,6.029,13.2990,4.60025,2470.11,2020-8-29T04:16:12Z
2020-08-29T02:18:25Z,42.805,6.029,13.3000,4.60043,2470.124,2020-8-29T04:19:16Z
2020-08-29T02:21:29Z,42.805,6.029,13.2979,4.60017,2470.1,2020-8-29T04:22:19Z
2020-08-29T02:24:32Z,42.805,6.029,13.2990,4.60037,2470.11,2020-8-29T04:25:22Z
2020-08-29T02:27:35Z,42.805,6.029,13.2983,4.60011,2470.087,2020-8-29T04:28:26Z
2020-08-29T02:30:39Z,42.805,6.029,13.2986,4.60029,2470.087,2020-8-29T04:31:29Z
2020-08-29T02:33:42Z,42.805,6.029,13.2990,4.60016,2470.124,2020-8-29T04:34:32Z
2020-08-29T02:36:45Z,42.805,6.029,13.2983,4.60021,2470.1,2020-8-29T04:37:35Z
2020-08-29T02:39:48Z,42.805,6.029,13.2995,4.60027,2470.087,2020-8-29T04:40:39Z
2020-08-29T02:42:52Z,42.805,6.029,13.2986,4.60023,2470.1,2020-8-29T04:43:42Z
2020-08-29T02:45:55Z,42.805,6.029,13.2982,4.60021,2470.087,2020-8-29T04:46:45Z
2020-08-29T02:48:58Z,42.805,6.029,13.2998,4.60037,2470.11,2020-8-29T04:49:49Z
2020-08-29T02:52:02Z,42.805,6.029,13.2983,4.60033,2470.087,2020-8-29T04:52:52Z
2020-08-29T02:55:05Z,42.805,6.029,13.2988,4.60026,2470.124,2020-8-29T04:55:55Z
2020-08-29T02:58:08Z,42.805,6.029,13.2983,4.60025,2470.124,2020-8-29T04:58:59Z
2020-08-29T03:01:12Z,42.805,6.029,13.2990,4.60023,2470.087,2020-8-29T05:02:02Z
2020-08-29T03:04:15Z,42.805,6.029,13.2983,4.60025,2470.133,2020-8-29T05:05:05Z
2020-08-29T03:07:18Z,42.805,6.029,13.2992,4.60029,2470.1,2020-8-29T05:08:09Z
2020-08-29T03:10:22Z,42.805,6.029,13.2992,4.60029,2470.1,2020-8-29T05:11:12Z
2020-08-29T03:13:25Z,42.805,6.029,13.2983,4.60039,2470.087,2020-8-29T05:14:16Z
2020-08-29T03:16:29Z,42.805,6.029,13.2999,4.60043,2470.1,2020-8-29T05:17:19Z
2020-08-29T03:19:32Z,42.805,6.029,13.3000,4.60022,2470.133,2020-8-29T05:20:22Z
2020-08-29T03:22:35Z,42.805,6.029,13.2986,4.60017,2470.1,2020-8-29T05:23:25Z
2020-08-29T03:25:39Z,42.805,6.029,13.3005,4.60041,2470.087,2020-8-29T05:26:29Z
2020-08-29T03:28:42Z,42.805,6.029,13.2991,4.60031,2470.11,2020-8-29T05:29:32Z
2020-08-29T03:31:45Z,42.805,6.029,13.2990,4.60014,2470.147,2020-8-29T05:32:35Z
2020-08-29T03:34:48Z,42.805,6.029,13.2997,4.60039,2470.147,2020-8-29T05:35:39Z
2020-08-29T03:37:52Z,42.805,6.029,13.2993,4.60021,2470.1,2020-8-29T05:38:42Z
2020-08-29T03:40:55Z,42.805,6.029,13.3004,4.60022,2470.11,2020-8-29T05:41:45Z
2020-08-29T03:43:58Z,42.805,6.029,13.3006,4.60037,2470.11,2020-8-29T05:44:48Z
2020-08-29T03:47:01Z,42.805,6.029,13.2990,4.60021,2470.124,2020-8-29T05:47:52Z
2020-08-29T03:50:05Z,42.805,6.029,13.2986,4.60015,2470.147,2020-8-29T05:50:55Z
2020-08-29T03:53:08Z,42.805,6.029,13.2991,4.60031,2470.087,2020-8-29T05:53:58Z
2020-08-29T03:56:11Z,42.805,6.029,13.2988,4.60032,2470.11,2020-8-29T05:57:01Z
2020-08-29T03:59:14Z,42.805,6.029,13.2991,4.60029,2470.124,2020-8-29T06:00:05Z
2020-08-29T04:02:17Z,42.805,6.029,13.2987,4.60038,2470.11,2020-8-29T06:03:08Z
2020-08-29T04:05:21Z,42.805,6.029,13.2995,4.60041,2470.087,2020-8-29T06:06:11Z
2020-08-29T04:08:24Z,42.805,6.029,13.2982,4.60049,2470.124,2020-8-29T06:09:14Z
2020-08-29T04:11:27Z,42.805,6.029,13.2985,4.60026,2470.11,2020-8-29T06:12:18Z
2020-08-29T04:14:31Z,42.805,6.029,13.2982,4.60032,2470.087,2020-8-29T06:15:21Z
2020-08-29T04:17:34Z,42.805,6.029,13.2987,4.59987,2470.133,2020-8-29T06:18:24Z
2020-08-29T04:20:37Z,42.805,6.029,13.3000,4.60039,2470.11,2020-8-29T06:21:27Z
2020-08-29T04:23:40Z,42.805,6.029,13.2989,4.60026,2470.11,2020-8-29T06:24:31Z
2020-08-29T04:26:44Z,42.805,6.029,13.2990,4.60029,2470.124,2020-8-29T06:27:34Z
2020-08-29T04:29:47Z,42.805,6.029,13.2980,4.60020,2470.1,2020-8-29T06:30:37Z
2020-08-29T04:32:52Z,42.805,6.029,13.2984,4.60013,2470.087,2020-8-29T06:33:42Z
2020-08-29T04:35:55Z,42.805,6.029,13.2991,4.60032,2470.11,2020-8-29T06:36:45Z
2020-08-29T04:38:58Z,42.805,6.029,13.2983,4.60009,2470.11,2020-8-29T06:39:48Z
2020-08-29T04:42:01Z,42.805,6.029,13.2978,4.60019,2470.11,2020-8-29T06:42:52Z
2020-08-29T04:45:05Z,42.805,6.029,13.2985,4.60000,2470.11,2020-8-29T06:45:55Z
2020-08-29T04:48:08Z,42.805,6.029,13.2983,4.60023,2470.087,2020-8-29T06:48:58Z
2020-08-29T04:51:11Z,42.805,6.029,13.2982,4.60014,2470.11,2020-8-29T06:52:02Z
2020-08-29T04:54:15Z,42.805,6.029,13.2995,4.60015,2470.11,2020-8-29T06:55:05Z
2020-08-29T04:57:18Z,42.805,6.029,13.2989,4.60015,2470.11,2020-8-29T06:58:08Z
2020-08-29T05:00:21Z,42.805,6.029,13.2991,4.60027,2470.124,2020-8-29T07:01:11Z
2020-08-29T05:03:24Z,42.805,6.029,13.2982,4.60023,2470.124,2020-8-29T07:04:15Z
2020-08-29T05:06:28Z,42.805,6.029,13.2983,4.60003,2470.11,2020-8-29T07:07:18Z
2020-08-29T05:09:31Z,42.805,6.029,13.2993,4.60010,2470.147,2020-8-29T07:10:21Z
2020-08-29T05:12:34Z,42.805,6.029,13.2990,4.60020,2470.1,2020-8-29T07:13:24Z
2020-08-29T05:15:37Z,42.805,6.029,13.2983,4.60035,2470.124,2020-8-29T07:16:28Z
2020-08-29T05:18:41Z,42.805,6.029,13.2983,4.60026,2470.11,2020-8-29T07:19:31Z
2020-08-29T05:21:44Z,42.805,6.029,13.2998,4.60036,2470.11,2020-8-29T07:22:34Z
2020-08-29T05:24:47Z,42.805,6.029,13.2988,4.60026,2470.124,2020-8-29T07:25:38Z
2020-08-29T05:27:51Z,42.805,6.029,13.2981,4.60015,2470.124,2020-8-29T07:28:41Z
2020-08-29T05:30:54Z,42.805,6.029,13.2982,4.60031,2470.124,2020-8-29T07:31:44Z
2020-08-29T05:33:57Z,42.805,6.029,13.2983,4.60002,2470.147,2020-8-29T07:34:47Z
2020-08-29T05:37:00Z,42.805,6.029,13.2988,4.60038,2470.133,2020-8-29T07:37:51Z
2020-08-29T05:40:04Z,42.805,6.029,13.2984,4.60020,2470.124,2020-8-29T07:40:54Z
2020-08-29T05:43:07Z,42.805,6.029,13.2990,4.60031,2470.147,2020-8-29T07:43:57Z
2020-08-29T05:46:10Z,42.805,6.029,13.2976,4.60009,2470.11,2020-8-29T07:47:00Z
2020-08-29T05:49:13Z,42.805,6.029,13.2985,4.60033,2470.147,2020-8-29T07:50:04Z
2020-08-29T05:52:17Z,42.805,6.029,13.2981,4.60034,2470.124,2020-8-29T07:53:07Z
2020-08-29T05:55:20Z,42.805,6.029,13.2983,4.60026,2470.133,2020-8-29T07:56:10Z
2020-08-29T05:58:23Z,42.805,6.029,13.2986,4.60030,2470.124,2020-8-29T07:59:13Z
2020-08-29T06:01:26Z,42.805,6.029,13.2983,4.60021,2470.11,2020-8-29T08:02:17Z
2020-08-29T06:04:30Z,42.805,6.029,13.2986,4.60014,2470.1,2020-8-29T08:05:20Z
2020-08-29T06:07:33Z,42.805,6.029,13.3001,4.60019,2470.11,2020-8-29T08:08:23Z
2020-08-29T06:10:36Z,42.805,6.029,13.2978,4.60016,2470.087,2020-8-29T08:11:27Z
2020-08-29T06:13:40Z,42.805,6.029,13.2986,4.60052,2470.11,2020-8-29T08:14:30Z
2020-08-29T06:16:43Z,42.805,6.029,13.2987,4.60003,2470.147,2020-8-29T08:17:33Z
2020-08-29T06:19:46Z,42.805,6.029,13.2981,4.60023,2470.124,2020-8-29T08:20:37Z
2020-08-29T06:22:50Z,42.805,6.029,13.2986,4.60012,2470.11,2020-8-29T08:23:40Z
2020-08-29T06:25:53Z,42.805,6.029,13.2987,4.60016,2470.087,2020-8-29T08:26:43Z
2020-08-29T06:28:56Z,42.805,6.029,13.2991,4.60022,2470.1,2020-8-29T08:29:46Z
2020-08-29T06:32:00Z,42.805,6.029,13.2996,4.60039,2470.133,2020-8-29T08:32:50Z
2020-08-29T06:35:03Z,42.805,6.029,13.2980,4.60028,2470.124,2020-8-29T08:35:53Z
2020-08-29T06:38:06Z,42.805,6.029,13.3006,4.60031,2470.1,2020-8-29T08:38:56Z
2020-08-29T06:41:09Z,42.805,6.029,13.2997,4.60016,2470.1,2020-8-29T08:42:00Z
2020-08-29T06:44:13Z,42.805,6.029,13.2985,4.60024,2470.1,2020-8-29T08:45:03Z
2020-08-29T06:47:16Z,42.805,6.029,13.2982,4.60024,2470.087,2020-8-29T08:48:07Z
2020-08-29T06:50:20Z,42.805,6.029,13.2982,4.59999,2470.063,2020-8-29T08:51:10Z
2020-08-29T06:53:23Z,42.805,6.029,13.2989,4.60006,2470.087,2020-8-29T08:54:13Z
2020-08-29T06:56:26Z,42.805,6.029,13.2991,4.60002,2470.124,2020-8-29T08:57:17Z
2020-08-29T06:59:30Z,42.805,6.029,13.2980,4.60010,2470.063,2020-8-29T09:00:20Z
2020-08-29T07:02:33Z,42.805,6.029,13.2982,4.60006,2470.063,2020-8-29T09:03:23Z
2020-08-29T07:05:36Z,42.805,6.029,13.2981,4.60019,2470.087,2020-8-29T09:06:26Z
2020-08-29T07:08:39Z,42.805,6.029,13.2996,4.60026,2470.087,2020-8-29T09:09:30Z
2020-08-29T07:11:42Z,42.805,6.029,13.2986,4.60033,2470.1,2020-8-29T09:12:33Z
2020-08-29T07:14:46Z,42.805,6.029,13.2984,4.60015,2470.077,2020-8-29T09:15:36Z
2020-08-29T07:17:49Z,42.805,6.029,13.2982,4.60019,2470.11,2020-8-29T09:18:39Z
2020-08-29T07:20:52Z,42.805,6.029,13.2982,4.60021,2470.063,2020-8-29T09:21:43Z
2020-08-29T07:23:56Z,42.805,6.029,13.2987,4.60019,2470.1,2020-8-29T09:24:46Z
2020-08-29T07:26:59Z,42.805,6.029,13.2980,4.60019,2470.1,2020-8-29T09:27:49Z
2020-08-29T07:30:02Z,42.805,6.029,13.2989,4.60016,2470.077,2020-8-29T09:30:53Z
2020-08-29T07:33:06Z,42.805,6.029,13.2986,4.60024,2470.063,2020-8-29T09:33:56Z
2020-08-29T07:36:09Z,42.805,6.029,13.3009,4.60037,2470.053,2020-8-29T09:36:59Z
2020-08-29T07:39:12Z,42.805,6.029,13.2996,4.60043,2470.063,2020-8-29T09:40:02Z
2020-08-29T07:42:15Z,42.805,6.029,13.3006,4.60046,2470.077,2020-8-29T09:43:06Z
2020-08-29T07:45:19Z,42.805,6.029,13.2986,4.60019,2470.063,2020-8-29T09:46:09Z
2020-08-29T07:48:22Z,42.805,6.029,13.2983,4.60035,2470.063,2020-8-29T09:49:12Z
2020-08-29T07:51:25Z,42.805,6.029,13.2983,4.60041,2470.063,2020-8-29T09:52:16Z
2020-08-29T07:54:29Z,42.805,6.029,13.2986,4.60029,2470.087,2020-8-29T09:55:19Z
2020-08-29T07:57:32Z,42.805,6.029,13.2993,4.60041,2470.063,2020-8-29T09:58:22Z
2020-08-29T08:00:35Z,42.805,6.029,13.2982,4.60016,2470.077,2020-8-29T10:01:25Z
2020-08-29T08:03:38Z,42.805,6.029,13.2986,4.60011,2470.049,2020-8-29T10:04:29Z
2020-08-29T08:06:42Z,42.805,6.029,13.2982,4.60020,2470.063,2020-8-29T10:07:32Z
2020-08-29T08:09:45Z,42.805,6.029,13.2982,4.60031,2470.063,2020-8-29T10:10:35Z
2020-08-29T08:12:48Z,42.805,6.029,13.2982,4.60019,2470.04,2020-8-29T10:13:38Z
2020-08-29T08:15:51Z,42.805,6.029,13.2990,4.60050,2470.04,2020-8-29T10:16:42Z
2020-08-29T08:18:55Z,42.805,6.029,13.2985,4.60038,2470.053,2020-8-29T10:19:45Z
2020-08-29T08:21:58Z,42.805,6.029,13.2983,4.60009,2470.017,2020-8-29T10:22:48Z
2020-08-29T08:25:01Z,42.805,6.029,13.3013,4.60046,2470.053,2020-8-29T10:25:52Z
2020-08-29T08:28:04Z,42.805,6.029,13.2991,4.60023,2470.017,2020-8-29T10:28:55Z
2020-08-29T08:31:08Z,42.805,6.029,13.2986,4.60026,2470.04,2020-8-29T10:31:58Z
2020-08-29T08:34:11Z,42.805,6.029,13.2987,4.60016,2470.063,2020-8-29T10:35:01Z
2020-08-29T08:37:14Z,42.805,6.029,13.2979,4.60016,2470.053,2020-8-29T10:38:05Z
2020-08-29T08:40:18Z,42.805,6.029,13.2976,4.60024,2470.04,2020-8-29T10:41:08Z
2020-08-29T08:43:21Z,42.805,6.029,13.2986,4.60024,2470.04,2020-8-29T10:44:11Z
2020-08-29T08:46:24Z,42.805,6.029,13.2991,4.60022,2470.049,2020-8-29T10:47:15Z
2020-08-29T08:49:27Z,42.805,6.029,13.2995,4.60037,2470.04,2020-8-29T10:50:18Z
2020-08-29T08:52:31Z,42.805,6.029,13.2986,4.60024,2470.077,2020-8-29T10:53:21Z
2020-08-29T08:55:34Z,42.805,6.029,13.2990,4.60024,2470.053,2020-8-29T10:56:24Z
2020-08-29T08:58:37Z,42.805,6.029,13.3000,4.60038,2470.053,2020-8-29T10:59:28Z
2020-08-29T09:01:41Z,42.805,6.029,13.2991,4.60023,2470.053,2020-8-29T11:02:31Z
2020-08-29T09:04:44Z,42.805,6.029,13.2983,4.60019,2470.053,2020-8-29T11:05:34Z
2020-08-29T09:07:47Z,42.805,6.029,13.2989,4.60019,2470.053,2020-8-29T11:08:37Z
2020-08-29T09:10:50Z,42.805,6.029,13.2983,4.60014,2470.063,2020-8-29T11:11:41Z
2020-08-29T09:13:54Z,42.805,6.029,13.2982,4.59991,2470.04,2020-8-29T11:14:44Z
2020-08-29T09:16:57Z,42.805,6.029,13.2983,4.60007,2470.063,2020-8-29T11:17:47Z
2020-08-29T09:20:00Z,42.805,6.029,13.2989,4.60016,2470.03,2020-8-29T11:20:51Z
2020-08-29T09:23:03Z,42.805,6.029,13.2986,4.60026,2470.017,2020-8-29T11:23:54Z
2020-08-29T09:26:07Z,42.805,6.029,13.2989,4.60022,2470.04,2020-8-29T11:26:57Z
2020-08-29T09:29:10Z,42.805,6.029,13.2985,4.60006,2470.017,2020-8-29T11:30:01Z
2020-08-29T09:32:14Z,42.805,6.029,13.2981,4.60033,2470.053,2020-8-29T11:33:04Z
2020-08-29T09:35:17Z,42.805,6.029,13.2979,4.60025,2470.063,2020-8-29T11:36:07Z
2020-08-29T09:38:20Z,42.805,6.029,13.2991,4.60016,2470.04,2020-8-29T11:39:11Z
2020-08-29T09:41:24Z,42.805,6.029,13.2996,4.60005,2470.017,2020-8-29T11:42:14Z
2020-08-29T09:44:27Z,42.805,6.029,13.2990,4.60011,2470.077,2020-8-29T11:45:17Z
2020-08-29T09:47:30Z,42.805,6.029,13.2989,4.60003,2470.03,2020-8-29T11:48:20Z
2020-08-29T09:50:33Z,42.805,6.029,13.2987,4.60028,2470.04,2020-8-29T11:51:24Z
2020-08-29T09:53:37Z,42.805,6.029,13.2982,4.60008,2470.053,2020-8-29T11:54:27Z
2020-08-29T09:56:40Z,42.805,6.029,13.2986,4.60017,2470.03,2020-8-29T11:57:31Z
2020-08-29T09:59:44Z,42.805,6.029,13.2990,4.60008,2470.04,2020-8-29T12:00:34Z
2020-08-29T10:02:47Z,42.805,6.029,13.2990,4.60023,2470.017,2020-8-29T12:03:37Z
2020-08-29T10:05:50Z,42.805,6.029,13.2975,4.60008,2470.053,2020-8-29T12:06:40Z
2020-08-29T10:08:53Z,42.805,6.029,13.2984,4.60022,2470.017,2020-8-29T12:09:44Z
2020-08-29T10:11:57Z,42.805,6.029,13.2983,4.60021,2470.03,2020-8-29T12:12:47Z
2020-08-29T10:15:00Z,42.805,6.029,13.2993,4.59988,2470.03,2020-8-29T12:15:51Z
2020-08-29T10:18:04Z,42.805,6.029,13.2983,4.60019,2470.017,2020-8-29T12:18:54Z
2020-08-29T10:21:07Z,42.805,6.029,13.2982,4.60014,2470.017,2020-8-29T12:21:57Z
2020-08-29T10:24:10Z,42.805,6.029,13.2982,4.60039,2470.017,2020-8-29T12:25:01Z
2020-08-29T10:27:13Z,42.805,6.029,13.2986,4.60019,2470.003,2020-8-29T12:28:04Z
2020-08-29T10:30:17Z,42.805,6.029,13.2989,4.60019,2470.04,2020-8-29T12:31:07Z
2020-08-29T10:33:20Z,42.805,6.029,13.2993,4.60006,2470.007,2020-8-29T12:34:10Z
2020-08-29T10:36:23Z,42.805,6.029,13.2994,4.59998,2470.007,2020-8-29T12:37:13Z
2020-08-29T10:39:27Z,42.805,6.029,13.2996,4.59988,2470.017,2020-8-29T12:40:17Z
2020-08-29T10:42:30Z,42.805,6.029,13.2992,4.60011,2470.03,2020-8-29T12:43:20Z
2020-08-29T10:45:33Z,42.805,6.029,13.2991,4.60015,2470.007,2020-8-29T12:46:23Z
2020-08-29T10:48:36Z,42.805,6.029,13.2994,4.60002,2470.017,2020-8-29T12:49:27Z
2020-08-29T10:51:39Z,42.805,6.029,13.2990,4.60019,2470.03,2020-8-29T12:52:30Z
2020-08-29T10:54:43Z,42.805,6.029,13.2981,4.60031,2470.017,2020-8-29T12:55:33Z
2020-08-29T10:57:46Z,42.805,6.029,13.2986,4.59996,2470.017,2020-8-29T12:58:36Z
2020-08-29T11:00:49Z,42.805,6.029,13.2989,4.60008,2470.04,2020-8-29T13:01:40Z
2020-08-29T11:03:53Z,42.805,6.029,13.2986,4.60020,2470.017,2020-8-29T13:04:43Z
2020-08-29T11:06:56Z,42.805,6.029,13.2982,4.60000,2470.053,2020-8-29T13:07:46Z
2020-08-29T11:09:59Z,42.805,6.029,13.2978,4.60003,2470.04,2020-8-29T13:10:50Z
2020-08-29T11:13:03Z,42.805,6.029,13.2994,4.60009,2470.017,2020-8-29T13:13:53Z
2020-08-29T11:16:06Z,42.805,6.029,13.2983,4.60014,2470.007,2020-8-29T13:16:56Z
2020-08-29T11:19:09Z,42.805,6.029,13.2995,4.59983,2470.017,2020-8-29T13:19:59Z
2020-08-29T11:22:12Z,42.805,6.029,13.2994,4.59997,2470.017,2020-8-29T13:23:03Z
2020-08-29T11:25:16Z,42.805,6.029,13.2988,4.60024,2470.03,2020-8-29T13:26:06Z
2020-08-29T11:28:19Z,42.805,6.029,13.2990,4.60015,2470.04,2020-8-29T13:29:09Z
2020-08-29T11:31:22Z,42.805,6.029,13.2987,4.60029,2470.03,2020-8-29T13:32:13Z
2020-08-29T11:34:26Z,42.805,6.029,13.2980,4.59990,2469.993,2020-8-29T13:35:16Z
2020-08-29T11:37:29Z,42.805,6.029,13.2985,4.59984,2470.03,2020-8-29T13:38:19Z
2020-08-29T11:40:32Z,42.805,6.029,13.2978,4.59991,2470.04,2020-8-29T13:41:22Z
2020-08-29T11:43:36Z,42.805,6.029,13.2996,4.59994,2470.007,2020-8-29T13:44:26Z
2020-08-29T11:46:39Z,42.805,6.029,13.2988,4.59999,2470.017,2020-8-29T13:47:29Z
2020-08-29T11:49:42Z,42.805,6.029,13.2993,4.59999,2470.053,2020-8-29T13:50:33Z
2020-08-29T11:52:45Z,42.805,6.029,13.2986,4.60011,2470.053,2020-8-29T13:53:36Z
2020-08-29T11:55:49Z,42.805,6.029,13.2979,4.59989,2470.017,2020-8-29T13:56:39Z
2020-08-29T11:58:52Z,42.805,6.029,13.2972,4.59980,2470.03,2020-8-29T13:59:42Z
2020-08-29T12:01:55Z,42.805,6.029,13.2991,4.59992,2470.04,2020-8-29T14:02:46Z
2020-08-29T12:04:58Z,42.805,6.029,13.2981,4.60002,2470.017,2020-8-29T14:05:49Z
2020-08-29T12:08:02Z,42.805,6.029,13.2984,4.60006,2470.03,2020-8-29T14:08:52Z
2020-08-29T12:11:05Z,42.805,6.029,13.2986,4.59999,2470.03,2020-8-29T14:11:56Z
2020-08-29T12:14:09Z,42.805,6.029,13.2989,4.60009,2470.04,2020-8-29T14:14:59Z
2020-08-29T12:17:12Z,42.805,6.029,13.2995,4.60010,2470.053,2020-8-29T14:18:02Z
2020-08-29T12:20:15Z,42.805,6.029,13.2983,4.60001,2470.04,2020-8-29T14:21:05Z
2020-08-29T12:23:18Z,42.805,6.029,13.2978,4.60018,2470.053,2020-8-29T14:24:09Z
2020-08-29T12:26:22Z,42.805,6.029,13.2991,4.60009,2470.04,2020-8-29T14:27:12Z
2020-08-29T12:29:25Z,42.805,6.029,13.2986,4.60003,2470.077,2020-8-29T14:30:15Z
2020-08-29T12:32:28Z,42.805,6.029,13.2996,4.60034,2470.03,2020-8-29T14:33:19Z
2020-08-29T12:35:32Z,42.805,6.029,13.2988,4.60033,2470.077,2020-8-29T14:36:22Z
2020-08-29T12:38:35Z,42.805,6.029,13.2984,4.60018,2470.04,2020-8-29T14:39:25Z
2020-08-29T12:41:38Z,42.805,6.029,13.2992,4.60022,2470.077,2020-8-29T14:42:28Z
2020-08-29T12:44:41Z,42.805,6.029,13.2986,4.60014,2470.053,2020-8-29T14:45:32Z
2020-08-29T12:47:45Z,42.805,6.029,13.2984,4.60003,2470.077,2020-8-29T14:48:35Z
2020-08-29T12:50:48Z,42.805,6.029,13.2986,4.59995,2470.04,2020-8-29T14:51:39Z
2020-08-29T12:53:51Z,42.805,6.029,13.2982,4.60034,2470.077,2020-8-29T14:54:42Z
2020-08-29T12:56:55Z,42.805,6.029,13.2982,4.60008,2470.063,2020-8-29T14:57:45Z
2020-08-29T12:59:58Z,42.805,6.029,13.2981,4.59996,2470.063,2020-8-29T15:00:48Z
2020-08-29T13:03:01Z,42.805,6.029,13.2989,4.60013,2470.124,2020-8-29T15:03:52Z
2020-08-29T13:06:05Z,42.805,6.029,13.2986,4.60019,2470.077,2020-8-29T15:06:55Z
2020-08-29T13:09:08Z,42.805,6.029,13.2983,4.60041,2470.063,2020-8-29T15:09:58Z
2020-08-29T13:12:11Z,42.805,6.029,13.3005,4.60011,2470.063,2020-8-29T15:13:02Z
2020-08-29T13:15:15Z,42.805,6.029,13.2997,4.59999,2470.077,2020-8-29T15:16:05Z
2020-08-29T13:18:18Z,42.805,6.029,13.2990,4.60014,2470.063,2020-8-29T15:19:08Z
2020-08-29T13:21:21Z,42.805,6.029,13.2990,4.60007,2470.063,2020-8-29T15:22:11Z
2020-08-29T13:24:25Z,42.805,6.029,13.2990,4.60024,2470.077,2020-8-29T15:25:15Z
2020-08-29T13:27:28Z,42.805,6.029,13.2978,4.60006,2470.063,2020-8-29T15:28:18Z
2020-08-29T13:30:31Z,42.805,6.029,13.2982,4.60004,2470.063,2020-8-29T15:31:22Z
2020-08-29T13:33:34Z,42.805,6.029,13.2987,4.60010,2470.087,2020-8-29T15:34:25Z
2020-08-29T13:36:38Z,42.805,6.029,13.2991,4.60022,2470.063,2020-8-29T15:37:28Z
2020-08-29T13:39:41Z,42.805,6.029,13.2982,4.60001,2470.063,2020-8-29T15:40:31Z
2020-08-29T13:42:44Z,42.805,6.029,13.2985,4.60008,2470.087,2020-8-29T15:43:35Z
2020-08-29T13:45:48Z,42.805,6.029,13.2987,4.60013,2470.077,2020-8-29T15:46:38Z
2020-08-29T13:48:51Z,42.805,6.029,13.2990,4.60009,2470.077,2020-8-29T15:49:41Z
2020-08-29T13:51:54Z,42.805,6.029,13.2982,4.59994,2470.1,2020-8-29T15:52:44Z
2020-08-29T13:54:57Z,42.805,6.029,13.2990,4.59999,2470.11,2020-8-29T15:55:48Z
2020-08-29T13:58:01Z,42.805,6.029,13.2993,4.60024,2470.133,2020-8-29T15:58:51Z
2020-08-29T14:01:04Z,42.805,6.029,13.2991,4.60020,2470.133,2020-8-29T16:01:54Z
2020-08-29T14:04:07Z,42.805,6.029,13.2998,4.60030,2470.124,2020-8-29T16:04:57Z
2020-08-29T14:07:10Z,42.805,6.029,13.2987,4.60009,2470.147,2020-8-29T16:08:01Z
2020-08-29T14:10:14Z,42.805,6.029,13.2989,4.60006,2470.11,2020-8-29T16:11:04Z
2020-08-29T14:13:17Z,42.805,6.029,13.2986,4.60022,2470.11,2020-8-29T16:14:07Z
2020-08-29T14:16:20Z,42.805,6.029,13.2987,4.60024,2470.147,2020-8-29T16:17:10Z
2020-08-29T14:19:23Z,42.805,6.029,13.2983,4.59995,2470.147,2020-8-29T16:20:14Z
2020-08-29T14:22:27Z,42.805,6.029,13.2982,4.60005,2470.147,2020-8-29T16:23:17Z
2020-08-29T14:25:30Z,42.805,6.029,13.2990,4.60027,2470.133,2020-8-29T16:26:20Z
2020-08-29T14:28:33Z,42.805,6.029,13.2987,4.60016,2470.133,2020-8-29T16:29:23Z
2020-08-29T14:31:36Z,42.805,6.029,13.2982,4.60006,2470.124,2020-8-29T16:32:27Z
2020-08-29T14:34:40Z,42.805,6.029,13.2986,4.60001,2470.133,2020-8-29T16:35:30Z
2020-08-29T14:37:43Z,42.805,6.029,13.2990,4.60010,2470.133,2020-8-29T16:38:33Z
2020-08-29T14:40:46Z,42.805,6.029,13.2996,4.60010,2470.133,2020-8-29T16:41:37Z
2020-08-29T14:43:49Z,42.805,6.029,13.2989,4.60024,2470.133,2020-8-29T16:44:40Z
2020-08-29T14:46:53Z,42.805,6.029,13.2992,4.60021,2470.147,2020-8-29T16:47:43Z
2020-08-29T14:49:56Z,42.805,6.029,13.2981,4.60006,2470.156,2020-8-29T16:50:46Z
2020-08-29T14:52:59Z,42.805,6.029,13.2988,4.60004,2470.194,2020-8-29T16:53:50Z
2020-08-29T14:56:02Z,42.805,6.029,13.2990,4.60007,2470.156,2020-8-29T16:56:53Z
2020-08-29T14:59:06Z,42.805,6.029,13.2990,4.60008,2470.156,2020-8-29T16:59:56Z
2020-08-29T15:02:09Z,42.805,6.029,13.2990,4.60019,2470.171,2020-8-29T17:03:00Z
2020-08-29T15:05:13Z,42.805,6.029,13.2982,4.60001,2470.156,2020-8-29T17:06:03Z
2020-08-29T15:08:16Z,42.805,6.029,13.2996,4.60020,2470.203,2020-8-29T17:09:06Z
2020-08-29T15:11:19Z,42.805,6.029,13.2984,4.60019,2470.156,2020-8-29T17:12:10Z
2020-08-29T15:14:22Z,42.805,6.029,13.2996,4.60006,2470.133,2020-8-29T17:15:13Z